Las Vegas, NV

12:26 AM PST on December 05, 2016 (GMT -0800)
Nellis Air Force Base

Weather History for KLSV - May, 2013

Change the Weather History Date:

Monday, May 13, 2013

  Actual Average Record
Temperature  
Mean Temperature 84 °F -  
Max Temperature 101 °F 87 °F 102 °F (1997)
Min Temperature 67 °F 61 °F 50 °F (1998)
Cooling Degree Days 18    
Growing Degree Days 34 (Base 50)    
Moisture  
Dew Point 26 °F    
Average Humidity 13    
Maximum Humidity 22    
Minimum Humidity 6    
Precipitation  
Precipitation 0.00 in - - ()
Sea Level Pressure  
Sea Level Pressure 29.87 in    
Wind  
Wind Speed 4 mph (East)    
Max Wind Speed 13 mph    
Max Gust Speed 17 mph    
Visibility 10 miles    
Events      
Averages and records for this station are not official NWS values.
T = Trace of Precipitation, MM = Missing Value Source: NWS Daily Summary

Daily Weather History Graph

Daily Weather History Graph

Search for Another Location

Airport or City:

Trip Planner

Search our weather history database for the weather conditions in past years. The results will help you decide how hot, cold, wet, or windy it might be!

Date:

Astronomy

May. 13, 2013 Rise Set
Actual Time 5:35 AM PDT 7:38 PM PDT
Civil Twilight 5:06 AM PDT 8:06 PM PDT
Nautical Twilight 4:32 AM PDT 8:41 PM PDT
Astronomical Twilight 3:54 AM PDT 9:19 PM PDT
Moon 8:25 AM PDT (5/13) 10:50 PM PDT (5/13)
Length of Visible Light 15h 00m
Length of Day
14h 03m
Waxing Crescent, 13% of the Moon is Illuminated
May 13
Waxing Crescent
May 17
First Quarter
May 24
Full
May 31
Last Quarter
Jun 8
New

Hourly Weather History & Observations

Time (PDT) Temp. Dew Point Humidity Pressure Visibility Wind Dir Wind Speed Gust Speed Precip Events Conditions
12:58 AM 72.1 °F 27.5 °F 19% 29.91 in 10.0 mi Variable 1.2 mph - N/A   Clear
1:58 AM 74.7 °F 27.5 °F 17% 29.90 in 10.0 mi North 2.3 mph - N/A   Clear
2:58 AM 74.7 °F 28.0 °F 18% 29.90 in 10.0 mi NNW 2.3 mph - N/A   Clear
3:58 AM 67.8 °F 27.0 °F 22% 29.92 in 10.0 mi NE 6.9 mph - N/A   Clear
4:58 AM 70.9 °F 27.9 °F 20% 29.92 in 10.0 mi NNE 5.8 mph - N/A   Clear
5:58 AM 67.8 °F 27.0 °F 22% 29.95 in 10.0 mi NE 2.3 mph - N/A   Clear
6:58 AM 72.9 °F 28.2 °F 19% 29.96 in 10.0 mi South 3.5 mph - N/A   Clear
7:58 AM 74.1 °F 30.2 °F 20% 29.96 in 10.0 mi Calm Calm - N/A   Clear
8:58 AM 82.8 °F 29.5 °F 14% 29.97 in 10.0 mi Calm Calm - N/A   Clear
9:58 AM 88.3 °F 28.9 °F 12% 29.96 in 10.0 mi SW 1.2 mph - N/A   Clear
10:58 AM 91.8 °F 28.4 °F 10% 29.95 in 10.0 mi Variable 1.2 mph - N/A   Clear
11:58 AM 94.6 °F 26.4 °F 9% 29.93 in 10.0 mi Variable 1.2 mph - N/A   Clear
1:58 PM 99.9 °F 22.5 °F 6% 29.87 in 10.0 mi South 6.9 mph - N/A   Clear
2:58 PM 99.7 °F 25.9 °F 7% 29.84 in 10.0 mi South 9.2 mph - N/A   Clear
3:58 PM 100.8 °F 23.0 °F 6% 29.81 in 10.0 mi Variable 5.8 mph 17.3 mph N/A   Clear
4:58 PM 99.9 °F 26.1 °F 7% 29.79 in 10.0 mi East 12.7 mph 17.3 mph N/A   Clear
5:58 PM 100.2 °F 26.2 °F 7% 29.77 in 10.0 mi SE 11.5 mph - N/A   Clear
6:58 PM 98.8 °F 25.2 °F 7% 29.76 in 10.0 mi SSE 12.7 mph - N/A   Clear
7:58 PM 96.4 °F 24.1 °F 7% 29.77 in 10.0 mi SE 8.1 mph - N/A   Clear
8:58 PM 94.5 °F 25.2 °F 8% 29.76 in 10.0 mi SE 10.4 mph - N/A   Clear
9:58 PM 88.7 °F 26.1 °F 10% 29.78 in 10.0 mi North 8.1 mph - N/A   Clear
10:58 PM 84.2 °F 24.8 °F 11% 29.78 in 10.0 mi North 2.3 mph - N/A   Clear
11:53 PM 82.4 °F 24.8 °F 12% 29.85 in 6.0 mi North 2.3 mph - N/A   Haze
11:58 PM 81.7 °F 25.5 °F 13% 29.78 in 6.0 mi ENE 2.3 mph - N/A   Haze